Powrót do katalogu

FENGYUN 1C DEB

AktywnyPO
NORAD 30568·DEBRIS·🇨🇳 China

Wystrzelony May 10, 1999 z Taiyuan Satellite Launch Center

Loading…

Następne Przeloty (najbliższe 24 godziny)

TLE

ŚwieżeSource: Space-Track

Epoka: Sep 13, 2026, 12:11 UTC

1 30568U 99025ALJ 26256.50794751  .00005761  00000-0  11756-2 0  9997
2 30568  98.9445  92.6408 0018407  69.1365 357.2581 14.61247515 16578

Śledź FENGYUN 1C DEB w czasie rzeczywistym z AllMySat

Download on the App Store